Fergus Falls, MN

2:32 AM CST on November 23, 2017 (GMT -0600)
Fergus Falls Municipal-Mickelson

Weather History for KFFM - January, 2014

Change the Weather History Date:

Sunday, January 19, 2014

  Actual Average Record
Temperature  
Mean Temperature 24 °F -  
Max Temperature 28 °F 17 °F 39 °F (1981)
Min Temperature 19 °F -3 °F -30 °F (1970)
Degree Days  
Heating Degree Days 42    
Moisture  
Dew Point 20 °F    
Average Humidity 83    
Maximum Humidity 93    
Minimum Humidity 74    
Precipitation  
Precipitation 0.00 in - - ()
Sea Level Pressure  
Sea Level Pressure 29.59 in    
Wind  
Wind Speed 9 mph (NW)    
Max Wind Speed 18 mph    
Max Gust Speed 23 mph    
Visibility 10 miles    
Events      
Averages and records for this station are not official NWS values.
T = Trace of Precipitation, MM = Missing Value Source: NWS Daily Summary

Daily Weather History Graph

Daily Weather History Graph

Search for Another Location

Airport or City:

Trip Planner

Search our weather history database for the weather conditions in past years. The results will help you decide how hot, cold, wet, or windy it might be!

Date:

Astronomy

Jan. 19, 2014 Rise Set
Actual Time 8:00 AM CST 5:10 PM CST
Civil Twilight 7:27 AM CST 5:43 PM CST
Nautical Twilight 6:50 AM CST 6:20 PM CST
Astronomical Twilight 6:14 AM CST 6:56 PM CST
Moon 9:04 PM CST (1/19) 9:17 AM CST (1/19)
Length of Visible Light 10h 16m
Length of Day
9h 09m
Waning Gibbous, 89% of the Moon is Illuminated
Jan 19
Waning Gibbous
Jan 23
Last Quarter
Jan 30
New
Feb 6
First Quarter
Feb 14
Full

Hourly Weather History & Observations

Time (CST) Temp. Windchill Dew Point Humidity Pressure Visibility Wind Dir Wind Speed Gust Speed Precip Events Conditions
12:13 AM 19.4 °F 8.6 °F 15.8 °F 86% 29.61 in 10.0 mi SW 9.2 mph - N/A   Clear
12:33 AM 19.4 °F 9.5 °F 15.8 °F 86% 29.59 in 10.0 mi SSW 8.1 mph - N/A   Clear
12:52 AM 19.4 °F 11.5 °F 15.8 °F 86% 29.58 in 10.0 mi South 5.8 mph - N/A   Clear
1:13 AM 19.4 °F 14.3 °F 17.6 °F 93% 29.58 in 10.0 mi SW 3.5 mph - N/A   Clear
1:33 AM 23.0 °F 11.7 °F 19.4 °F 86% 29.57 in 10.0 mi West 11.5 mph - N/A   Clear
1:52 AM 24.8 °F 13.4 °F 19.4 °F 80% 29.57 in 10.0 mi West 12.7 mph - N/A   Clear
2:13 AM 28.4 °F 16.2 °F 21.2 °F 74% 29.56 in 10.0 mi West 17.3 mph - N/A   Clear
2:33 AM 28.4 °F 15.8 °F 21.2 °F 74% 29.57 in 10.0 mi West 18.4 mph - N/A   Clear
2:53 AM 28.4 °F 16.2 °F 21.2 °F 74% 29.56 in 10.0 mi West 17.3 mph 23.0 mph N/A   Clear
3:13 AM 28.4 °F 16.6 °F 21.2 °F 74% 29.56 in 10.0 mi West 16.1 mph - N/A   Clear
3:33 AM 28.4 °F 17.0 °F 21.2 °F 74% 29.56 in 10.0 mi WNW 15.0 mph - N/A   Clear
3:53 AM 28.4 °F 16.6 °F 21.2 °F 74% 29.56 in 10.0 mi West 16.1 mph - N/A   Clear
4:13 AM 26.6 °F 13.8 °F 21.2 °F 80% 29.56 in 10.0 mi WNW 17.3 mph - N/A   Clear
4:33 AM 26.6 °F 14.3 °F 21.2 °F 80% 29.56 in 10.0 mi West 16.1 mph - N/A   Clear
4:53 AM 26.6 °F 15.2 °F 21.2 °F 80% 29.55 in 10.0 mi West 13.8 mph - N/A   Clear
5:13 AM 24.8 °F 12.9 °F 19.4 °F 80% 29.55 in 10.0 mi WNW 13.8 mph - N/A   Clear
5:33 AM 24.8 °F 12.9 °F 19.4 °F 80% 29.55 in 10.0 mi West 13.8 mph - N/A   Clear
5:53 AM 24.8 °F 13.4 °F 19.4 °F 80% 29.54 in 10.0 mi West 12.7 mph - N/A   Clear
6:13 AM 21.2 °F 8.9 °F 17.6 °F 86% 29.54 in 10.0 mi WNW 12.7 mph - N/A   Clear
6:33 AM 21.2 °F 12.6 °F 17.6 °F 86% 29.54 in 10.0 mi NW 6.9 mph - N/A   Clear
6:53 AM 24.8 °F 16.9 °F 19.4 °F 80% 29.52 in 10.0 mi NNW 6.9 mph - N/A   Clear
7:13 AM 21.2 °F 13.6 °F 17.6 °F 86% 29.54 in 10.0 mi WNW 5.8 mph - N/A   Clear
7:33 AM 21.2 °F 16.4 °F 17.6 °F 86% 29.54 in 10.0 mi NW 3.5 mph - N/A   Clear
7:53 AM 21.2 °F 11.7 °F 17.6 °F 86% 29.55 in 10.0 mi NW 8.1 mph - N/A   Clear
8:13 AM 21.2 °F 11.7 °F 17.6 °F 86% 29.55 in 10.0 mi NW 8.1 mph - N/A   Clear
8:33 AM 21.2 °F 12.6 °F 17.6 °F 86% 29.56 in 10.0 mi NW 6.9 mph - N/A   Clear
8:53 AM 21.2 °F 14.9 °F 17.6 °F 86% 29.55 in 10.0 mi NNW 4.6 mph - N/A   Clear
9:13 AM 23.0 °F - 19.4 °F 86% 29.53 in 10.0 mi Calm Calm - N/A   Clear
9:33 AM 23.0 °F - 19.4 °F 86% 29.51 in 10.0 mi Calm Calm - N/A   Clear
9:53 AM 24.8 °F - 19.4 °F 80% 29.51 in 10.0 mi Calm Calm - N/A   Clear
10:13 AM 24.8 °F - 19.4 °F 80% 29.50 in 10.0 mi Calm Calm - N/A   Clear
10:33 AM 19.4 °F 10.4 °F 15.8 °F 86% 29.53 in 10.0 mi West 6.9 mph - N/A   Clear
10:53 AM 19.4 °F 11.5 °F 15.8 °F 86% 29.55 in 10.0 mi WNW 5.8 mph - N/A   Clear
11:13 AM 21.2 °F 12.6 °F 17.6 °F 86% 29.54 in 10.0 mi WNW 6.9 mph - N/A   Clear
11:33 AM 21.2 °F - 17.6 °F 86% 29.50 in 10.0 mi Calm Calm - N/A   Clear
11:53 AM 23.0 °F - 19.4 °F 86% 29.48 in 10.0 mi Calm Calm - N/A   Clear
12:13 PM 24.8 °F 19.1 °F 19.4 °F 80% 29.51 in 10.0 mi NW 4.6 mph - N/A   Clear
12:33 PM 24.8 °F 19.1 °F 19.4 °F 80% 29.52 in 10.0 mi WNW 4.6 mph - N/A   Clear
12:53 PM 24.8 °F 16.9 °F 19.4 °F 80% 29.51 in 10.0 mi WNW 6.9 mph - N/A   Clear
1:13 PM 24.8 °F 16.9 °F 19.4 °F 80% 29.51 in 10.0 mi NW 6.9 mph - N/A   Clear
1:33 PM 24.8 °F 16.1 °F 19.4 °F 80% 29.51 in 10.0 mi NNW 8.1 mph - N/A   Clear
1:53 PM 26.6 °F 21.2 °F 21.2 °F 80% 29.51 in 10.0 mi North 4.6 mph - N/A   Clear
2:13 PM 26.6 °F 19.1 °F 21.2 °F 80% 29.53 in 10.0 mi North 6.9 mph - N/A   Scattered Clouds
2:33 PM 28.4 °F 18.5 °F 23.0 °F 80% 29.55 in 10.0 mi NNW 11.5 mph - N/A   Overcast
2:53 PM 28.4 °F 19.1 °F 23.0 °F 80% 29.56 in 10.0 mi NNW 10.4 mph - N/A   Overcast
3:13 PM 28.4 °F 19.7 °F 23.0 °F 80% 29.57 in 10.0 mi NNW 9.2 mph - N/A   Overcast
3:33 PM 26.6 °F 18.2 °F 21.2 °F 80% 29.58 in 10.0 mi NNW 8.1 mph - N/A   Overcast
3:53 PM 26.6 °F 15.7 °F 21.2 °F 80% 29.60 in 10.0 mi NW 12.7 mph - N/A   Overcast
4:13 PM 26.6 °F 17.5 °F 21.2 °F 80% 29.61 in 10.0 mi NW 9.2 mph - N/A   Overcast
4:33 PM 26.6 °F 16.8 °F 21.2 °F 80% 29.62 in 10.0 mi NW 10.4 mph - N/A   Overcast
4:53 PM 24.8 °F 15.3 °F 21.2 °F 86% 29.63 in 10.0 mi NW 9.2 mph - N/A   Overcast
5:13 PM 24.8 °F 13.4 °F 21.2 °F 86% 29.65 in 10.0 mi NW 12.7 mph - N/A   Overcast
5:33 PM 24.8 °F 14.0 °F 21.2 °F 86% 29.64 in 10.0 mi NW 11.5 mph - N/A   Overcast
5:53 PM 24.8 °F 14.6 °F 21.2 °F 86% 29.65 in 10.0 mi NW 10.4 mph - N/A   Overcast
6:13 PM 24.8 °F 16.1 °F 21.2 °F 86% 29.65 in 10.0 mi NW 8.1 mph - N/A   Overcast
6:33 PM 24.8 °F 16.1 °F 21.2 °F 86% 29.66 in 10.0 mi NW 8.1 mph - N/A   Overcast
6:53 PM 24.8 °F 14.6 °F 21.2 °F 86% 29.68 in 10.0 mi NW 10.4 mph - N/A   Overcast
7:13 PM 24.8 °F 13.4 °F 21.2 °F 86% 29.68 in 10.0 mi NW 12.7 mph - N/A   Overcast
7:33 PM 24.8 °F 15.3 °F 19.4 °F 80% 29.68 in 10.0 mi NW 9.2 mph - N/A   Overcast
7:53 PM 24.8 °F 16.9 °F 19.4 °F 80% 29.69 in 10.0 mi NNW 6.9 mph - N/A   Overcast
8:13 PM 24.8 °F 16.1 °F 19.4 °F 80% 29.70 in 10.0 mi NNW 8.1 mph - N/A   Overcast
8:33 PM 24.8 °F 16.1 °F 19.4 °F 80% 29.71 in 10.0 mi NNW 8.1 mph - N/A   Overcast
8:53 PM 24.8 °F 17.9 °F 19.4 °F 80% 29.71 in 10.0 mi NNW 5.8 mph - N/A   Overcast
9:13 PM 24.8 °F 19.1 °F 19.4 °F 80% 29.71 in 10.0 mi NW 4.6 mph - N/A   Overcast
9:33 PM 23.0 °F 14.7 °F 19.4 °F 86% 29.72 in 10.0 mi NW 6.9 mph - N/A   Overcast
9:53 PM 23.0 °F 13.1 °F 19.4 °F 86% 29.74 in 10.0 mi WNW 9.2 mph - N/A   Overcast
10:13 PM 23.0 °F 13.1 °F 19.4 °F 86% 29.73 in 10.0 mi WNW 9.2 mph - N/A   Overcast
10:33 PM 23.0 °F 15.8 °F 19.4 °F 86% 29.74 in 10.0 mi West 5.8 mph - N/A   Overcast
10:53 PM 23.0 °F 17.0 °F 19.4 °F 86% 29.74 in 10.0 mi NW 4.6 mph - N/A   Overcast
11:13 PM 23.0 °F 17.0 °F 19.4 °F 86% 29.75 in 10.0 mi NW 4.6 mph - N/A   Overcast
11:33 PM 23.0 °F 14.7 °F 19.4 °F 86% 29.76 in 7.0 mi NW 6.9 mph - N/A   Overcast
11:53 PM 21.2 °F 10.1 °F 19.4 °F 93% 29.77 in 10.0 mi NW 10.4 mph - N/A   Overcast